Wetterdaten: Woche 03.02.14 - 09.02.14 (KW6)
Datum Zeit Temperatur Luftfeuchte Luftdruck Niederschlag Windrichtung Sonnenschein Solar Wind
03.02.2014 00:00 1,2 C 97 % 1016,6 hPa 0,2 l/m N 0,00 h 0 W/m 7,0 km/h (2 Bft)
03.02.2014 01:00 1,0 C 97 % 1015,9 hPa 0,0 l/m NO 0,00 h 0 W/m 8,6 km/h (2 Bft)
03.02.2014 02:00 0,9 C 98 % 1015,4 hPa 0,0 l/m NO 0,00 h 0 W/m 10,1 km/h (2 Bft)
03.02.2014 03:00 0,8 C 98 % 1014,9 hPa 0,0 l/m O-NO 0,00 h 0 W/m 8,4 km/h (2 Bft)
03.02.2014 04:00 0,9 C 98 % 1014,1 hPa 0,0 l/m O-NO 0,00 h 0 W/m 12,1 km/h (2 Bft)
03.02.2014 05:00 0,8 C 98 % 1013,4 hPa 0,0 l/m O-NO 0,00 h 0 W/m 13,2 km/h (3 Bft)
03.02.2014 06:00 0,8 C 98 % 1012,4 hPa 0,0 l/m O-NO 0,00 h 0 W/m 10,6 km/h (2 Bft)
03.02.2014 07:00 0,7 C 98 % 1011,8 hPa 0,0 l/m NO 0,00 h 0 W/m 12,4 km/h (3 Bft)
03.02.2014 08:00 0,7 C 98 % 1011,4 hPa 0,0 l/m O-NO 0,00 h 8 W/m 14,1 km/h (3 Bft)
03.02.2014 09:00 0,7 C 98 % 1011,0 hPa 0,0 l/m O 0,00 h 18 W/m 15,2 km/h (3 Bft)
03.02.2014 10:00 0,6 C 98 % 1010,6 hPa 0,0 l/m O 0,00 h 26 W/m 14,2 km/h (3 Bft)
03.02.2014 11:00 0,7 C 98 % 1010,1 hPa 0,0 l/m O-SO 0,00 h 42 W/m 13,2 km/h (3 Bft)
03.02.2014 12:00 1,0 C 98 % 1009,4 hPa 0,0 l/m O-SO 0,00 h 56 W/m 12,5 km/h (3 Bft)
03.02.2014 13:00 1,3 C 97 % 1008,3 hPa 0,0 l/m O 0,00 h 47 W/m 10,2 km/h (2 Bft)
03.02.2014 14:00 1,3 C 97 % 1008,1 hPa 0,0 l/m O 0,00 h 39 W/m 7,1 km/h (2 Bft)
03.02.2014 15:00 1,5 C 96 % 1008,1 hPa 0,0 l/m O 0,00 h 29 W/m 5,6 km/h (1 Bft)
03.02.2014 16:00 1,4 C 96 % 1008,1 hPa 0,0 l/m O 0,00 h 17 W/m 5,2 km/h (1 Bft)
03.02.2014 17:00 1,3 C 96 % 1008,1 hPa 0,0 l/m N 0,00 h 5 W/m 3,1 km/h (1 Bft)
03.02.2014 18:00 1,3 C 96 % 1008,4 hPa 0,0 l/m N 0,00 h 0 W/m 0,9 km/h (0 Bft)
03.02.2014 19:00 1,2 C 97 % 1008,6 hPa 0,0 l/m N 0,00 h 0 W/m 1,7 km/h (1 Bft)
03.02.2014 20:00 1,2 C 97 % 1008,7 hPa 0,0 l/m N 0,00 h 0 W/m 1,1 km/h (0 Bft)
03.02.2014 21:00 1,1 C 97 % 1009,1 hPa 0,0 l/m N 0,00 h 0 W/m 0,9 km/h (0 Bft)
03.02.2014 22:00 1,1 C 97 % 1009,3 hPa 0,0 l/m N 0,00 h 0 W/m 0,9 km/h (0 Bft)
03.02.2014 23:00 1,0 C 97 % 1009,4 hPa 0,0 l/m O 0,00 h 0 W/m 3,3 km/h (1 Bft)
04.02.2014 00:00 0,8 C 98 % 1010,0 hPa 0,0 l/m O 0,00 h 0 W/m 4,4 km/h (1 Bft)
04.02.2014 01:00 0,8 C 98 % 1010,1 hPa 0,0 l/m SW 0,00 h 0 W/m 5,1 km/h (1 Bft)
04.02.2014 02:00 0,9 C 98 % 1010,6 hPa 0,0 l/m SW 0,00 h 0 W/m 8,0 km/h (2 Bft)
04.02.2014 03:00 0,8 C 98 % 1011,0 hPa 0,0 l/m W-SW 0,00 h 0 W/m 8,9 km/h (2 Bft)
04.02.2014 04:00 0,7 C 98 % 1011,3 hPa 0,0 l/m SW 0,00 h 0 W/m 5,7 km/h (1 Bft)
04.02.2014 05:00 0,7 C 98 % 1011,6 hPa 0,0 l/m SW 0,00 h 0 W/m 3,2 km/h (1 Bft)
04.02.2014 06:00 0,7 C 98 % 1011,6 hPa 0,0 l/m SW 0,00 h 0 W/m 5,2 km/h (1 Bft)
04.02.2014 07:00 0,8 C 98 % 1011,9 hPa 0,0 l/m SW 0,00 h 0 W/m 6,0 km/h (2 Bft)
04.02.2014 08:00 0,9 C 98 % 1012,3 hPa 0,0 l/m SW 0,00 h 13 W/m 2,5 km/h (1 Bft)
04.02.2014 09:00 0,8 C 98 % 1012,3 hPa 0,0 l/m SW 0,00 h 45 W/m 2,1 km/h (1 Bft)
04.02.2014 10:00 1,2 C 99 % 1012,5 hPa 0,0 l/m SW 0,00 h 88 W/m 2,9 km/h (1 Bft)
04.02.2014 11:00 2,6 C 98 % 1012,7 hPa 0,0 l/m W-NW 0,50 h 238 W/m 5,2 km/h (1 Bft)
04.02.2014 12:00 4,3 C 92 % 1012,2 hPa 0,0 l/m W-NW 0,75 h 350 W/m 4,0 km/h (1 Bft)
04.02.2014 13:00 6,1 C 87 % 1011,8 hPa 0,0 l/m NW 1,00 h 349 W/m 6,1 km/h (2 Bft)
04.02.2014 14:00 7,1 C 82 % 1011,7 hPa 0,0 l/m NW 0,83 h 246 W/m 5,7 km/h (1 Bft)
04.02.2014 15:00 7,4 C 78 % 1011,4 hPa 0,0 l/m NW 0,33 h 119 W/m 5,5 km/h (1 Bft)
04.02.2014 16:00 6,7 C 81 % 1011,1 hPa 0,0 l/m N 0,00 h 41 W/m 2,1 km/h (1 Bft)
04.02.2014 17:00 5,1 C 87 % 1010,7 hPa 0,0 l/m N 0,00 h 10 W/m 0,7 km/h (0 Bft)
04.02.2014 18:00 3,3 C 92 % 1010,5 hPa 0,0 l/m N 0,00 h 0 W/m 0,8 km/h (0 Bft)
04.02.2014 19:00 1,8 C 95 % 1010,0 hPa 0,0 l/m N 0,00 h 0 W/m 0,3 km/h (0 Bft)
04.02.2014 20:00 0,8 C 97 % 1009,1 hPa 0,0 l/m N-NW 0,00 h 0 W/m 0,8 km/h (0 Bft)
04.02.2014 21:00 0,4 C 97 % 1008,5 hPa 0,0 l/m N-NW 0,00 h 0 W/m 4,4 km/h (1 Bft)
04.02.2014 22:00 1,1 C 98 % 1007,7 hPa 0,0 l/m N-NW 0,00 h 0 W/m 4,0 km/h (1 Bft)
04.02.2014 23:00 1,0 C 98 % 1006,8 hPa 0,0 l/m N-NW 0,00 h 0 W/m 4,5 km/h (1 Bft)
05.02.2014 00:00 0,6 C 98 % 1006,4 hPa 0,0 l/m N-NW 0,00 h 0 W/m 5,7 km/h (1 Bft)
05.02.2014 01:00 0,8 C 98 % 1005,8 hPa 0,0 l/m N-NW 0,00 h 0 W/m 6,4 km/h (2 Bft)
05.02.2014 02:00 0,6 C 98 % 1005,3 hPa 0,0 l/m N-NO 0,00 h 0 W/m 6,4 km/h (2 Bft)
05.02.2014 03:00 0,0 C 98 % 1004,4 hPa 0,0 l/m NO 0,00 h 0 W/m 7,4 km/h (2 Bft)
05.02.2014 04:00 -0,5 C 98 % 1003,8 hPa 0,0 l/m NO 0,00 h 0 W/m 6,4 km/h (2 Bft)
05.02.2014 05:00 -0,7 C 99 % 1003,3 hPa 0,0 l/m NO 0,00 h 0 W/m 6,4 km/h (2 Bft)
05.02.2014 06:00 -0,8 C 99 % 1002,8 hPa 0,0 l/m NO 0,00 h 0 W/m 5,1 km/h (1 Bft)
05.02.2014 07:00 -0,9 C 99 % 1002,5 hPa 0,0 l/m NO 0,00 h 12 W/m 4,3 km/h (1 Bft)
05.02.2014 08:00 -1,0 C 99 % 1002,4 hPa 0,0 l/m NO 0,00 h 19 W/m 3,1 km/h (1 Bft)
05.02.2014 09:00 -0,7 C 99 % 1002,1 hPa 0,0 l/m NO 0,00 h 40 W/m 4,1 km/h (1 Bft)
05.02.2014 10:00 -0,3 C 99 % 1002,2 hPa 0,0 l/m NO 0,00 h 76 W/m 2,7 km/h (1 Bft)
05.02.2014 11:00 1,2 C 98 % 1002,0 hPa 0,0 l/m NO 0,42 h 236 W/m 2,9 km/h (1 Bft)
05.02.2014 12:00 2,3 C 94 % 1001,3 hPa 0,0 l/m NO 0,08 h 163 W/m 4,3 km/h (1 Bft)
05.02.2014 13:00 2,6 C 94 % 1001,3 hPa 0,0 l/m NO 0,00 h 52 W/m 3,1 km/h (1 Bft)
05.02.2014 14:00 2,6 C 95 % 1001,5 hPa 0,2 l/m NO 0,00 h 39 W/m 6,4 km/h (2 Bft)
05.02.2014 15:00 2,8 C 96 % 1000,8 hPa 0,0 l/m O 0,00 h 50 W/m 1,5 km/h (1 Bft)
05.02.2014 16:00 3,1 C 96 % 1001,0 hPa 0,0 l/m O 0,00 h 16 W/m 1,7 km/h (1 Bft)
05.02.2014 17:00 3,2 C 96 % 1002,6 hPa 0,0 l/m W-NW 0,00 h 6 W/m 14,2 km/h (3 Bft)
05.02.2014 18:00 4,2 C 90 % 1003,7 hPa 0,0 l/m W 0,00 h 0 W/m 20,2 km/h (4 Bft)
05.02.2014 19:00 3,6 C 90 % 1004,4 hPa 0,0 l/m SW 0,00 h 0 W/m 15,6 km/h (3 Bft)
05.02.2014 20:00 3,2 C 93 % 1005,4 hPa 0,0 l/m SW 0,00 h 0 W/m 13,6 km/h (3 Bft)
05.02.2014 21:00 3,2 C 93 % 1006,2 hPa 0,0 l/m SW 0,00 h 0 W/m 14,4 km/h (3 Bft)
05.02.2014 22:00 2,8 C 92 % 1007,0 hPa 0,0 l/m W-SW 0,00 h 0 W/m 15,8 km/h (3 Bft)
05.02.2014 23:00 2,2 C 92 % 1007,8 hPa 0,0 l/m SW 0,00 h 0 W/m 12,6 km/h (3 Bft)
06.02.2014 00:00 1,5 C 93 % 1008,4 hPa 0,0 l/m SW 0,00 h 0 W/m 10,8 km/h (2 Bft)
06.02.2014 01:00 1,1 C 94 % 1008,9 hPa 0,0 l/m SW 0,00 h 0 W/m 7,4 km/h (2 Bft)
06.02.2014 02:00 0,6 C 95 % 1009,4 hPa 0,0 l/m SW 0,00 h 0 W/m 8,7 km/h (2 Bft)
06.02.2014 03:00 0,7 C 96 % 1009,7 hPa 0,0 l/m SW 0,00 h 0 W/m 12,0 km/h (2 Bft)
06.02.2014 04:00 0,7 C 95 % 1010,2 hPa 0,0 l/m SW 0,00 h 0 W/m 11,2 km/h (2 Bft)
06.02.2014 05:00 1,2 C 95 % 1010,7 hPa 0,0 l/m SW 0,00 h 0 W/m 9,1 km/h (2 Bft)
06.02.2014 06:00 1,0 C 95 % 1011,1 hPa 0,0 l/m SW 0,00 h 0 W/m 9,8 km/h (2 Bft)
06.02.2014 07:00 1,2 C 95 % 1011,6 hPa 0,0 l/m SW 0,00 h 6 W/m 7,6 km/h (2 Bft)
06.02.2014 08:00 1,3 C 95 % 1011,9 hPa 0,0 l/m SW 0,00 h 23 W/m 11,4 km/h (2 Bft)
06.02.2014 09:00 1,9 C 95 % 1011,8 hPa 0,0 l/m SW 0,00 h 73 W/m 13,4 km/h (3 Bft)
06.02.2014 10:00 3,7 C 89 % 1011,5 hPa 0,0 l/m SW 0,25 h 189 W/m 13,8 km/h (3 Bft)
06.02.2014 11:00 6,2 C 80 % 1011,2 hPa 0,0 l/m SW 1,00 h 410 W/m 18,4 km/h (3 Bft)
06.02.2014 12:00 7,9 C 69 % 1010,0 hPa 0,0 l/m SW 1,00 h 451 W/m 19,3 km/h (3 Bft)
06.02.2014 13:00 9,2 C 61 % 1008,9 hPa 0,0 l/m S-SW 1,00 h 442 W/m 14,8 km/h (3 Bft)
06.02.2014 14:00 9,8 C 54 % 1008,2 hPa 0,0 l/m S-SW 1,00 h 331 W/m 12,2 km/h (2 Bft)
06.02.2014 15:00 9,3 C 52 % 1007,6 hPa 0,0 l/m SW 0,75 h 216 W/m 9,0 km/h (2 Bft)
06.02.2014 16:00 9,2 C 52 % 1006,9 hPa 0,0 l/m SW 0,42 h 92 W/m 5,5 km/h (1 Bft)
06.02.2014 17:00 7,3 C 63 % 1006,5 hPa 0,0 l/m N 0,00 h 9 W/m 0,9 km/h (0 Bft)
06.02.2014 18:00 5,4 C 71 % 1005,6 hPa 0,0 l/m N 0,00 h 0 W/m 0,3 km/h (0 Bft)
06.02.2014 19:00 4,2 C 74 % 1004,3 hPa 0,0 l/m N 0,00 h 0 W/m 0,5 km/h (0 Bft)
06.02.2014 20:00 3,5 C 77 % 1003,4 hPa 0,0 l/m SW 0,00 h 0 W/m 1,1 km/h (0 Bft)
06.02.2014 21:00 3,8 C 78 % 1002,8 hPa 0,0 l/m N 0,00 h 0 W/m 0,7 km/h (0 Bft)
06.02.2014 22:00 3,8 C 79 % 1002,2 hPa 0,0 l/m N 0,00 h 0 W/m 0,7 km/h (0 Bft)
06.02.2014 23:00 3,3 C 78 % 1001,9 hPa 0,0 l/m N 0,00 h 0 W/m 1,2 km/h (1 Bft)
07.02.2014 00:00 2,3 C 80 % 1001,4 hPa 0,0 l/m SW 0,00 h 0 W/m 1,1 km/h (0 Bft)
07.02.2014 01:00 1,2 C 83 % 1000,6 hPa 0,0 l/m N 0,00 h 0 W/m 0,5 km/h (0 Bft)
07.02.2014 02:00 0,5 C 84 % 999,9 hPa 0,0 l/m N 0,00 h 0 W/m 0,7 km/h (0 Bft)
07.02.2014 03:00 0,1 C 86 % 999,2 hPa 0,0 l/m N 0,00 h 0 W/m 0,8 km/h (0 Bft)
07.02.2014 04:00 -0,1 C 87 % 999,3 hPa 0,0 l/m W-NW 0,00 h 0 W/m 5,5 km/h (1 Bft)
07.02.2014 05:00 1,2 C 83 % 1000,1 hPa 0,0 l/m W-NW 0,00 h 0 W/m 3,3 km/h (1 Bft)
07.02.2014 06:00 0,8 C 84 % 1000,1 hPa 0,0 l/m S-SW 0,00 h 0 W/m 3,3 km/h (1 Bft)
07.02.2014 07:00 0,9 C 85 % 999,6 hPa 0,0 l/m S 0,00 h 5 W/m 8,2 km/h (2 Bft)
07.02.2014 08:00 1,3 C 83 % 999,5 hPa 0,0 l/m S 0,00 h 14 W/m 2,9 km/h (1 Bft)
07.02.2014 09:00 2,2 C 84 % 1000,4 hPa 0,0 l/m W-NW 0,50 h 149 W/m 11,5 km/h (2 Bft)
07.02.2014 10:00 8,1 C 71 % 1002,1 hPa 0,0 l/m W 0,92 h 327 W/m 35,8 km/h (5 Bft)
07.02.2014 11:00 9,2 C 73 % 1003,1 hPa 0,0 l/m W 0,17 h 154 W/m 35,9 km/h (5 Bft)
07.02.2014 12:00 7,3 C 82 % 1004,2 hPa 0,0 l/m SW 0,00 h 82 W/m 34,3 km/h (5 Bft)
07.02.2014 13:00 7,2 C 83 % 1004,3 hPa 0,0 l/m SW 0,00 h 116 W/m 33,9 km/h (5 Bft)
07.02.2014 14:00 7,0 C 80 % 1004,6 hPa 0,0 l/m SW 0,00 h 83 W/m 35,8 km/h (5 Bft)
07.02.2014 15:00 6,6 C 81 % 1005,3 hPa 0,0 l/m W-SW 0,00 h 46 W/m 25,1 km/h (4 Bft)
07.02.2014 16:00 5,9 C 81 % 1005,6 hPa 0,0 l/m SW 0,00 h 25 W/m 27,8 km/h (4 Bft)
07.02.2014 17:00 5,4 C 83 % 1006,3 hPa 0,0 l/m W-SW 0,00 h 9 W/m 26,6 km/h (4 Bft)
07.02.2014 18:00 5,1 C 85 % 1006,8 hPa 0,0 l/m W-SW 0,00 h 0 W/m 27,4 km/h (4 Bft)
07.02.2014 19:00 4,9 C 85 % 1007,4 hPa 0,0 l/m W-SW 0,00 h 0 W/m 25,7 km/h (4 Bft)
07.02.2014 20:00 4,7 C 86 % 1008,2 hPa 0,0 l/m W-SW 0,00 h 0 W/m 23,7 km/h (4 Bft)
07.02.2014 21:00 4,3 C 86 % 1008,3 hPa 0,0 l/m W-SW 0,00 h 0 W/m 17,6 km/h (3 Bft)
07.02.2014 22:00 4,0 C 87 % 1008,3 hPa 0,0 l/m W-SW 0,00 h 0 W/m 16,6 km/h (3 Bft)
07.02.2014 23:00 3,5 C 88 % 1008,5 hPa 0,0 l/m W-SW 0,00 h 0 W/m 14,6 km/h (3 Bft)
08.02.2014 00:00 3,0 C 90 % 1008,3 hPa 0,0 l/m W-SW 0,00 h 0 W/m 15,0 km/h (3 Bft)
08.02.2014 01:00 2,3 C 90 % 1008,2 hPa 0,0 l/m SW 0,00 h 0 W/m 12,8 km/h (3 Bft)
08.02.2014 02:00 1,7 C 92 % 1007,7 hPa 0,0 l/m SW 0,00 h 0 W/m 12,0 km/h (2 Bft)
08.02.2014 03:00 1,4 C 93 % 1006,8 hPa 0,0 l/m SW 0,00 h 0 W/m 8,4 km/h (2 Bft)
08.02.2014 04:00 0,5 C 92 % 1005,9 hPa 0,0 l/m N 0,00 h 0 W/m 0,7 km/h (0 Bft)
08.02.2014 05:00 -0,6 C 92 % 1005,3 hPa 0,0 l/m N 0,00 h 0 W/m 0,3 km/h (0 Bft)
08.02.2014 06:00 -1,4 C 93 % 1004,3 hPa 0,0 l/m N 0,00 h 0 W/m 0,1 km/h (0 Bft)
08.02.2014 07:00 -1,8 C 94 % 1003,6 hPa 0,0 l/m N 0,08 h 18 W/m 0,0 km/h (0 Bft)
08.02.2014 08:00 -1,0 C 96 % 1002,9 hPa 0,0 l/m N 0,08 h 33 W/m 0,0 km/h (0 Bft)
08.02.2014 09:00 0,2 C 97 % 1002,2 hPa 0,0 l/m N 0,75 h 180 W/m 0,0 km/h (0 Bft)
08.02.2014 10:00 2,9 C 92 % 1001,2 hPa 0,0 l/m SW 0,00 h 134 W/m 3,6 km/h (1 Bft)
08.02.2014 11:00 4,3 C 81 % 1000,7 hPa 0,0 l/m SW 0,00 h 92 W/m 4,6 km/h (1 Bft)
08.02.2014 12:00 4,9 C 80 % 999,8 hPa 0,0 l/m W-NW 0,25 h 214 W/m 5,9 km/h (2 Bft)
08.02.2014 13:00 5,3 C 79 % 998,7 hPa 0,0 l/m W-NW 0,00 h 137 W/m 3,1 km/h (1 Bft)
08.02.2014 14:00 6,0 C 76 % 998,0 hPa 0,0 l/m W-SW 0,00 h 92 W/m 9,4 km/h (2 Bft)
08.02.2014 15:00 5,9 C 79 % 997,3 hPa 0,0 l/m S-SW 0,00 h 37 W/m 8,2 km/h (2 Bft)
08.02.2014 16:00 5,2 C 81 % 997,4 hPa 0,0 l/m S-SW 0,00 h 13 W/m 6,4 km/h (2 Bft)
08.02.2014 17:00 4,5 C 81 % 997,8 hPa 0,0 l/m SW 0,00 h 6 W/m 14,9 km/h (3 Bft)
08.02.2014 18:00 4,1 C 82 % 997,7 hPa 0,0 l/m SW 0,00 h 0 W/m 7,6 km/h (2 Bft)
08.02.2014 19:00 3,7 C 83 % 997,3 hPa 0,0 l/m SW 0,00 h 0 W/m 3,2 km/h (1 Bft)
08.02.2014 20:00 3,7 C 84 % 997,9 hPa 0,0 l/m W 0,00 h 0 W/m 15,2 km/h (3 Bft)
08.02.2014 21:00 3,9 C 87 % 998,1 hPa 0,0 l/m SW 0,00 h 0 W/m 16,0 km/h (3 Bft)
08.02.2014 22:00 3,8 C 89 % 999,0 hPa 0,0 l/m W-SW 0,00 h 0 W/m 18,9 km/h (3 Bft)
08.02.2014 23:00 3,7 C 90 % 999,5 hPa 0,0 l/m SW 0,00 h 0 W/m 19,0 km/h (3 Bft)
09.02.2014 00:00 3,1 C 93 % 999,3 hPa 0,0 l/m SW 0,00 h 0 W/m 13,0 km/h (3 Bft)
09.02.2014 01:00 2,9 C 95 % 999,1 hPa 0,0 l/m SW 0,00 h 0 W/m 11,2 km/h (2 Bft)
09.02.2014 02:00 3,1 C 96 % 999,3 hPa 0,0 l/m SW 0,00 h 0 W/m 16,2 km/h (3 Bft)
09.02.2014 03:00 3,3 C 92 % 999,1 hPa 0,0 l/m SW 0,00 h 0 W/m 15,4 km/h (3 Bft)
09.02.2014 04:00 2,8 C 92 % 999,1 hPa 0,0 l/m SW 0,00 h 0 W/m 12,2 km/h (2 Bft)
09.02.2014 05:00 2,1 C 93 % 999,0 hPa 0,0 l/m SW 0,00 h 0 W/m 8,6 km/h (2 Bft)
09.02.2014 06:00 1,6 C 94 % 999,5 hPa 0,0 l/m SW 0,00 h 0 W/m 10,6 km/h (2 Bft)
09.02.2014 07:00 1,8 C 93 % 1000,5 hPa 0,0 l/m W-SW 0,00 h 6 W/m 15,0 km/h (3 Bft)
09.02.2014 08:00 1,8 C 92 % 1000,9 hPa 0,0 l/m SW 0,00 h 30 W/m 10,6 km/h (2 Bft)
09.02.2014 09:00 2,8 C 88 % 1001,0 hPa 0,0 l/m W-SW 0,08 h 115 W/m 18,5 km/h (3 Bft)
09.02.2014 10:00 4,3 C 79 % 1000,9 hPa 0,0 l/m SW 0,50 h 226 W/m 22,4 km/h (4 Bft)
09.02.2014 11:00 5,5 C 73 % 1001,0 hPa 0,0 l/m W 0,67 h 283 W/m 32,9 km/h (5 Bft)
09.02.2014 12:00 5,0 C 75 % 1001,2 hPa 0,0 l/m W 0,25 h 210 W/m 29,6 km/h (5 Bft)
09.02.2014 13:00 5,7 C 69 % 1001,2 hPa 0,0 l/m W 0,08 h 154 W/m 34,9 km/h (5 Bft)
09.02.2014 14:00 3,5 C 84 % 1001,5 hPa 0,4 l/m W-SW 0,33 h 211 W/m 29,6 km/h (5 Bft)
09.02.2014 15:00 5,0 C 76 % 1001,6 hPa 0,0 l/m W-SW 0,50 h 214 W/m 28,7 km/h (4 Bft)
09.02.2014 16:00 3,6 C 84 % 1002,1 hPa 0,0 l/m W 0,42 h 73 W/m 20,5 km/h (4 Bft)
09.02.2014 17:00 3,8 C 78 % 1002,1 hPa 0,0 l/m W-SW 0,08 h 16 W/m 21,0 km/h (4 Bft)
09.02.2014 18:00 3,1 C 77 % 1002,5 hPa 0,0 l/m SW 0,00 h 0 W/m 13,4 km/h (3 Bft)
09.02.2014 19:00 2,4 C 78 % 1002,7 hPa 0,0 l/m SW 0,00 h 0 W/m 10,9 km/h (2 Bft)
09.02.2014 20:00 1,9 C 77 % 1002,6 hPa 0,0 l/m SW 0,00 h 0 W/m 6,8 km/h (2 Bft)
09.02.2014 21:00 1,1 C 79 % 1002,6 hPa 0,0 l/m SW 0,00 h 0 W/m 9,7 km/h (2 Bft)
09.02.2014 22:00 1,7 C 72 % 1002,5 hPa 0,0 l/m SW 0,00 h 0 W/m 9,9 km/h (2 Bft)
09.02.2014 23:00 0,6 C 75 % 1002,0 hPa 0,0 l/m N 0,00 h 0 W/m 0,9 km/h (0 Bft)
Min-Datum _ 08.02.14 06.02.14 08.02.14 - - - - 03.02.14
_ Min-Zeit 07:20 16:00 19:00 - - - - 17:45
Minimum _ -1,9 C 50 % 996,8 hPa - - - - 0,0 km/h (0 Bft)
Max-Datum _ 06.02.14 04.02.14 03.02.14 09.02.14 - 04.02.14 09.02.14 07.02.14
_ Max-Zeit 14:35 10:05 00:00 14:05 - 11:10 13:15 10:50
Maximum _ 10,1 C 99 % 1016,7 hPa 0,4 l/m - 0,08 h 577 W/m 56,3 km/h
W-NW (7 Bft)
Durchschnitt _ 2,7 C 89 % 1005,6 hPa #0,8 l/m SW #15:00 h 110 W/m 10,0 km/h (2 Bft)